Search for airport 
image banner adimage banner ad
image banner ad

DAAP - Illizi / Takhamalt

Located in Illizi, Algeria

ICAO - DAAP, IATA - VVZ

Data provided by Airmate  

General information

Coordinates: N26°43'25" E8°37'4"
Elevation is 1778 feet MSL.
 
View others Airports in Illizi Province

Operational data

Open for public use
Current time UTC:
Current local time:
Weather
METAR: DAAP 301800Z 05013KT CAVOK 24/04 Q1021
TAF: TAF DAAP 301700Z 3018/3103 07010KT CAVOK PROB30 TEMPO 3019/3021 07020KT 4000 DRSA
View NOTAMs / SUP AIP / TFR affecting this airport [VIEW]
Communications frequencies: [VIEW]

Runways:

RWY identifierQFULength (ft)Width (ft)SurfaceLDA (ft)
0991°9843148ASP
27271°9843148

Airport contact information

Address: Illizi Algeria

Satellite view of DAAP